Regional Weather Roundup
Issued by NWS

Home | Current Version | Previous Version | Graphics & Text | Print | Product List | Glossary Off
Versions: 1 2 3 4 5 6 7 8 9 10 11 12 13 14 15 16 17 18 19 20 21 22 23 24 25 26 27 28 29 30 31 32 33 34 35 36 37 38 39 40 41 42 43 44 45 46 47 48 49 50

000
ASUS43 KTOP 280059
RWRKS

WEATHER ROUNDUP FOR KANSAS
NATIONAL WEATHER SERVICE GOODLAND KS
800 PM CDT MON MAR 27 2017

NOTE:  "FAIR" INDICATES FEW OR NO CLOUDS BELOW 12,000 FEET WITH NO
SIGNIFICANT WEATHER AND/OR OBSTRUCTIONS TO VISIBILITY.

KSZ001>006-013>018-027>032-041>047-280200-
NORTHWEST KANSAS

CITY           SKY/WX    TMP DP  RH WIND       PRES   REMARKS
GOODLAND       CLEAR     55  42  61 SE10      29.85R
HAYS             N/A     56  42  59 E10       29.91R
HILL CITY      MOCLDY    55  42  61 E7        29.90S
RUSSELL        CLOUDY    52  42  69 E9        29.91R
$$

KSZ061>065-074>080-084>089-280200-
SOUTHWEST KANSAS

CITY           SKY/WX    TMP DP  RH WIND       PRES   REMARKS
DODGE CITY     CLEAR     57  42  57 E12       29.88R
ELKHART          N/A     60  34  37 SE13        N/A
GARDEN CITY    CLEAR     60  35  39 SE9       29.86R
GREAT BEND     CLEAR     55  43  63 E7        29.92
LIBERAL        CLEAR     63  30  29 E12       29.87R
$$

KSZ066>073-081>083-090>101-280200-
SOUTHEAST KANSAS

CITY           SKY/WX    TMP DP  RH WIND       PRES   REMARKS
CHANUTE        CLOUDY    53  47  79 N6        29.95R
COFFEYVILLE    CLOUDY    55  49  80 N6        29.94R
HUTCHINSON     CLOUDY    53  45  74 E5        29.95R
MEDICINE LODGE   N/A     54  45  71 E10       29.92R
NEWTON         CLOUDY    52  46  80 CALM      29.95R
PARSONS        CLOUDY    55  47  74 N5        29.95R
WICHITA INTL   CLOUDY    53  47  79 E5        29.94R
WICHITA JABRA  CLOUDY    52  46  80 E8        29.94R
WINFIELD       CLOUDY    54  46  74 N6        29.95R
$$

KSZ007>012-019>026-033>040-048>060-102>105-280200-
NORTHEAST KANSAS

CITY           SKY/WX    TMP DP  RH WIND       PRES   REMARKS
CONCORDIA      CLOUDY    52  47  83 E7        29.95R
EMPORIA        CLOUDY    53  47  79 N6        29.94R
LAWRENCE       CLOUDY    54  49  83 NW6       29.95R
MANHATTAN      CLOUDY    54  46  74 E3        29.95R
OLATHE IND     CLOUDY    51  45  79 NE6       29.95R
OLATHE EXE     CLOUDY    51  46  83 NE5       29.94R
SALINA         CLOUDY    54  46  74 E6        29.95R
TOPEKA BILLARD CLOUDY    54  48  80 N7        29.95R
TOPEKA FORBES  CLOUDY    55  47  74 NE6       29.94R
$$




USA.gov is the U.S. government's official web portal to all federal, state and local government web resources and services.